Time,TemperatureF,DewpointF,PressureIn,WindDirection,WindDirectionDegrees,WindSpeedMPH,WindSpeedGustMPH,Humidity,HourlyPrecipIn,Conditions,Clouds,dailyrainin,SolarRadiationWatts/m^2,SoftwareType,DateUTC
2013-10-08 00:08:00,64.9,31.0,30.01,ESE,103,2.0,2.0,28,0.00,,,0.00,0,weatherlink.com 1.10,2013-10-08 07:08:00,
2013-10-08 00:23:00,64.9,31.0,30.01,ESE,103,0.0,2.0,28,0.00,,,0.00,0,weatherlink.com 1.10,2013-10-08 07:23:00,
2013-10-08 00:38:00,64.1,31.0,30.01,ESE,103,0.0,2.0,29,0.00,,,0.00,0,weatherlink.com 1.10,2013-10-08 07:38:00,
2013-10-08 00:53:00,63.2,33.0,30.02,ESE,103,2.0,3.0,32,0.00,,,0.00,0,weatherlink.com 1.10,2013-10-08 07:53:00,
2013-10-08 01:08:00,62.1,33.0,30.02,ESE,103,0.0,2.0,34,0.00,,,0.00,0,weatherlink.com 1.10,2013-10-08 08:08:00,
2013-10-08 01:23:00,61.2,33.0,30.02,ESE,103,0.0,1.0,35,0.00,,,0.00,0,weatherlink.com 1.10,2013-10-08 08:23:00,
2013-10-08 01:39:00,60.8,33.0,30.02,ESE,103,1.0,2.0,36,0.00,,,0.00,0,weatherlink.com 1.10,2013-10-08 08:39:00,
2013-10-08 01:54:00,61.2,32.0,30.02,ESE,103,2.0,4.0,34,0.00,,,0.00,0,weatherlink.com 1.10,2013-10-08 08:54:00,
2013-10-08 02:09:00,61.8,32.0,30.01,East,80,3.0,5.0,33,0.00,,,0.00,0,weatherlink.com 1.10,2013-10-08 09:09:00,
2013-10-08 02:24:00,62.2,32.0,30.00,NE,47,0.0,1.0,32,0.00,,,0.00,0,weatherlink.com 1.10,2013-10-08 09:24:00,
2013-10-08 02:39:00,60.9,32.0,30.00,East,98,3.0,3.0,34,0.00,,,0.00,0,weatherlink.com 1.10,2013-10-08 09:39:00,
2013-10-08 02:54:00,61.9,32.0,30.00,East,98,2.0,3.0,32,0.00,,,0.00,0,weatherlink.com 1.10,2013-10-08 09:54:00,
2013-10-08 03:09:00,61.6,32.0,29.99,East,92,2.0,4.0,33,0.00,,,0.00,0,weatherlink.com 1.10,2013-10-08 10:09:00,
2013-10-08 03:24:00,61.9,32.0,29.99,ENE,74,2.0,4.0,32,0.00,,,0.00,0,weatherlink.com 1.10,2013-10-08 10:24:00,
2013-10-08 03:39:00,61.4,31.0,29.98,ENE,74,0.0,4.0,32,0.00,,,0.00,0,weatherlink.com 1.10,2013-10-08 10:39:00,
2013-10-08 03:55:00,61.2,32.0,29.99,ENE,74,0.0,3.0,33,0.00,,,0.00,0,weatherlink.com 1.10,2013-10-08 10:55:00,
2013-10-08 04:09:00,58.7,34.0,29.99,ENE,74,1.0,2.0,40,0.00,,,0.00,0,weatherlink.com 1.10,2013-10-08 11:09:00,
2013-10-08 04:24:00,57.6,34.0,29.99,ENE,74,0.0,0.0,42,0.00,,,0.00,0,weatherlink.com 1.10,2013-10-08 11:24:00,
2013-10-08 04:39:00,57.4,33.0,29.99,ENE,74,0.0,1.0,40,0.00,,,0.00,0,weatherlink.com 1.10,2013-10-08 11:39:00,
2013-10-08 04:54:00,56.6,34.0,29.99,ENE,74,0.0,0.0,43,0.00,,,0.00,0,weatherlink.com 1.10,2013-10-08 11:54:00,
2013-10-08 05:09:00,56.2,33.0,29.99,ENE,74,1.0,2.0,42,0.00,,,0.00,0,weatherlink.com 1.10,2013-10-08 12:09:00,
2013-10-08 05:24:00,56.5,33.0,29.99,ENE,70,3.0,5.0,42,0.00,,,0.00,0,weatherlink.com 1.10,2013-10-08 12:24:00,
2013-10-08 05:39:00,56.1,32.0,30.00,ENE,69,1.0,3.0,41,0.00,,,0.00,0,weatherlink.com 1.10,2013-10-08 12:39:00,
2013-10-08 05:54:00,55.7,33.0,30.00,ENE,69,3.0,4.0,42,0.00,,,0.00,0,weatherlink.com 1.10,2013-10-08 12:54:00,
2013-10-08 06:09:00,55.1,33.0,30.00,ENE,69,2.0,2.0,44,0.00,,,0.00,0,weatherlink.com 1.10,2013-10-08 13:09:00,
2013-10-08 06:24:00,54.5,33.0,30.00,ENE,69,1.0,3.0,44,0.00,,,0.00,5,weatherlink.com 1.10,2013-10-08 13:24:00,
2013-10-08 06:39:00,54.8,34.0,30.00,ESE,112,1.0,4.0,45,0.00,,,0.00,14,weatherlink.com 1.10,2013-10-08 13:39:00,
2013-10-08 06:54:00,56.4,33.0,30.00,ENE,76,0.0,4.0,42,0.00,,,0.00,39,weatherlink.com 1.10,2013-10-08 13:54:00,
2013-10-08 07:09:00,58.0,34.0,30.00,ESE,111,2.0,3.0,40,0.00,,,0.00,86,weatherlink.com 1.10,2013-10-08 14:09:00,
2013-10-08 07:24:00,61.1,34.0,30.01,ESE,111,0.0,1.0,37,0.00,,,0.00,142,weatherlink.com 1.10,2013-10-08 14:24:00,
2013-10-08 07:39:00,66.1,37.0,30.01,ESE,117,0.0,2.0,34,0.00,,,0.00,199,weatherlink.com 1.10,2013-10-08 14:39:00,
2013-10-08 07:54:00,69.0,36.0,30.01,ESE,117,0.0,2.0,30,0.00,,,0.00,244,weatherlink.com 1.10,2013-10-08 14:54:00,
2013-10-08 08:09:00,72.1,35.0,30.02,ESE,117,1.0,2.0,26,0.00,,,0.00,301,weatherlink.com 1.10,2013-10-08 15:09:00,
2013-10-08 08:24:00,72.7,36.0,30.02,SW,220,1.0,3.0,26,0.00,,,0.00,353,weatherlink.com 1.10,2013-10-08 15:24:00,
2013-10-08 08:40:00,76.1,36.0,30.02,SSW,202,1.0,4.0,23,0.00,,,0.00,403,weatherlink.com 1.10,2013-10-08 15:40:00,
2013-10-08 08:55:00,75.2,36.0,30.02,SSW,196,0.0,2.0,24,0.00,,,0.00,450,weatherlink.com 1.10,2013-10-08 15:55:00,
2013-10-08 09:10:00,77.9,36.0,30.02,SSW,196,1.0,2.0,22,0.00,,,0.00,499,weatherlink.com 1.10,2013-10-08 16:10:00,
2013-10-08 09:25:00,78.4,35.0,30.02,SE,126,3.0,4.0,21,0.00,,,0.00,540,weatherlink.com 1.10,2013-10-08 16:25:00,
2013-10-08 09:40:00,79.0,35.0,30.02,SE,125,2.0,5.0,20,0.00,,,0.00,580,weatherlink.com 1.10,2013-10-08 16:40:00,
2013-10-08 09:55:00,79.5,34.0,30.01,ESE,118,0.0,4.0,19,0.00,,,0.00,621,weatherlink.com 1.10,2013-10-08 16:55:00,
2013-10-08 10:10:00,81.1,34.0,30.01,ENE,72,4.0,5.0,18,0.00,,,0.00,654,weatherlink.com 1.10,2013-10-08 17:10:00,
2013-10-08 10:25:00,83.5,34.0,30.00,SSW,201,0.0,3.0,17,0.00,,,0.00,687,weatherlink.com 1.10,2013-10-08 17:25:00,
2013-10-08 10:40:00,84.3,33.0,30.00,NE,38,2.0,5.0,16,0.00,,,0.00,712,weatherlink.com 1.10,2013-10-08 17:40:00,
2013-10-08 10:55:00,86.6,35.0,30.00,SW,223,0.0,5.0,16,0.00,,,0.00,733,weatherlink.com 1.10,2013-10-08 17:55:00,
2013-10-08 11:10:00,85.2,34.0,29.99,South,175,3.0,8.0,16,0.00,,,0.00,754,weatherlink.com 1.10,2013-10-08 18:10:00,
2013-10-08 11:25:00,86.6,35.0,29.99,WNW,284,2.0,9.0,16,0.00,,,0.00,770,weatherlink.com 1.10,2013-10-08 18:25:00,
2013-10-08 11:40:00,86.6,35.0,29.98,West,280,2.0,8.0,16,0.00,,,0.00,775,weatherlink.com 1.10,2013-10-08 18:40:00,
2013-10-08 11:55:00,88.8,37.0,29.97,SSW,198,11.0,16.0,16,0.00,,,0.00,788,weatherlink.com 1.10,2013-10-08 18:55:00,
2013-10-08 12:10:00,88.2,37.0,29.96,WSW,239,9.0,16.0,16,0.00,,,0.00,791,weatherlink.com 1.10,2013-10-08 19:10:00,
2013-10-08 12:25:00,87.9,36.0,29.95,SW,230,6.0,20.0,16,0.00,,,0.00,789,weatherlink.com 1.10,2013-10-08 19:25:00,
2013-10-08 12:40:00,88.0,36.0,29.94,SSW,202,6.0,14.0,16,0.00,,,0.00,780,weatherlink.com 1.10,2013-10-08 19:40:00,
2013-10-08 12:56:00,88.1,33.0,29.93,West,281,8.0,18.0,14,0.00,,,0.00,772,weatherlink.com 1.10,2013-10-08 19:56:00,
2013-10-08 13:11:00,89.2,34.0,29.93,SSW,207,9.0,15.0,14,0.00,,,0.00,759,weatherlink.com 1.10,2013-10-08 20:11:00,
2013-10-08 13:26:00,89.5,34.0,29.92,SSW,205,7.0,19.0,14,0.00,,,0.00,747,weatherlink.com 1.10,2013-10-08 20:26:00,
2013-10-08 13:41:00,88.6,35.0,29.91,West,269,11.0,18.0,15,0.00,,,0.00,722,weatherlink.com 1.10,2013-10-08 20:41:00,
2013-10-08 13:56:00,87.4,34.0,29.91,West,268,2.0,13.0,15,0.00,,,0.00,698,weatherlink.com 1.10,2013-10-08 20:56:00,
2013-10-08 14:11:00,89.2,34.0,29.91,SSW,210,14.0,19.0,14,0.00,,,0.00,668,weatherlink.com 1.10,2013-10-08 21:11:00,
2013-10-08 14:26:00,89.0,34.0,29.91,SW,236,11.0,13.0,14,0.00,,,0.00,635,weatherlink.com 1.10,2013-10-08 21:26:00,
2013-10-08 14:41:00,88.2,33.0,29.90,SSE,165,11.0,14.0,14,0.00,,,0.00,603,weatherlink.com 1.10,2013-10-08 21:41:00,
2013-10-08 14:56:00,88.1,33.0,29.90,WSW,243,5.0,17.0,14,0.00,,,0.00,563,weatherlink.com 1.10,2013-10-08 21:56:00,
2013-10-08 15:11:00,88.4,33.0,29.89,SSW,209,6.0,14.0,14,0.00,,,0.00,524,weatherlink.com 1.10,2013-10-08 22:11:00,
2013-10-08 15:26:00,88.5,34.0,29.89,WSW,255,4.0,12.0,14,0.00,,,0.00,475,weatherlink.com 1.10,2013-10-08 22:26:00,
2013-10-08 15:41:00,88.0,33.0,29.89,SSW,209,4.0,14.0,14,0.00,,,0.00,429,weatherlink.com 1.10,2013-10-08 22:41:00,
2013-10-08 15:56:00,87.6,33.0,29.88,SW,230,7.0,16.0,14,0.00,,,0.00,383,weatherlink.com 1.10,2013-10-08 22:56:00,
2013-10-08 16:11:00,87.2,32.0,29.88,West,266,13.0,18.0,14,0.00,,,0.00,329,weatherlink.com 1.10,2013-10-08 23:11:00,
2013-10-08 16:26:00,86.4,32.0,29.88,SW,232,10.0,16.0,14,0.00,,,0.00,279,weatherlink.com 1.10,2013-10-08 23:26:00,
2013-10-08 16:41:00,86.3,32.0,29.88,SW,226,6.0,17.0,14,0.00,,,0.00,223,weatherlink.com 1.10,2013-10-08 23:41:00,
2013-10-08 16:56:00,86.1,32.0,29.88,WSW,245,13.0,13.0,14,0.00,,,0.00,163,weatherlink.com 1.10,2013-10-08 23:56:00,
2013-10-08 17:11:00,85.3,31.0,29.88,WSW,243,5.0,17.0,14,0.00,,,0.00,102,weatherlink.com 1.10,2013-10-09 00:11:00,
2013-10-08 17:26:00,84.5,30.0,29.87,West,259,8.0,15.0,14,0.00,,,0.00,51,weatherlink.com 1.10,2013-10-09 00:26:00,
2013-10-08 17:41:00,83.4,31.0,29.88,WSW,248,2.0,12.0,15,0.00,,,0.00,18,weatherlink.com 1.10,2013-10-09 00:41:00,
2013-10-08 17:56:00,82.5,30.0,29.88,West,279,3.0,9.0,15,0.00,,,0.00,7,weatherlink.com 1.10,2013-10-09 00:56:00,
2013-10-08 18:11:00,81.6,30.0,29.88,WSW,254,3.0,9.0,15,0.00,,,0.00,0,weatherlink.com 1.10,2013-10-09 01:11:00,
2013-10-08 18:26:00,80.6,29.0,29.88,WSW,249,5.0,9.0,15,0.00,,,0.00,0,weatherlink.com 1.10,2013-10-09 01:26:00,
2013-10-08 18:41:00,80.2,30.0,29.88,WSW,238,1.0,8.0,16,0.00,,,0.00,0,weatherlink.com 1.10,2013-10-09 01:41:00,
2013-10-08 18:56:00,78.8,29.0,29.89,SW,228,2.0,7.0,16,0.00,,,0.00,0,weatherlink.com 1.10,2013-10-09 01:56:00,
2013-10-08 19:11:00,78.6,29.0,29.89,West,269,3.0,9.0,16,0.00,,,0.00,0,weatherlink.com 1.10,2013-10-09 02:11:00,
2013-10-08 19:26:00,77.9,30.0,29.89,WSW,248,1.0,5.0,17,0.00,,,0.00,0,weatherlink.com 1.10,2013-10-09 02:26:00,
2013-10-08 19:41:00,76.3,30.0,29.89,WSW,252,4.0,4.0,18,0.00,,,0.00,0,weatherlink.com 1.10,2013-10-09 02:41:00,
2013-10-08 19:56:00,75.5,29.0,29.90,WSW,249,0.0,4.0,18,0.00,,,0.00,0,weatherlink.com 1.10,2013-10-09 02:56:00,
2013-10-08 20:11:00,73.9,29.0,29.90,WSW,249,0.0,1.0,19,0.00,,,0.00,0,weatherlink.com 1.10,2013-10-09 03:11:00,
2013-10-08 20:26:00,71.0,30.0,29.90,WSW,249,2.0,3.0,22,0.00,,,0.00,0,weatherlink.com 1.10,2013-10-09 03:26:00,
2013-10-08 20:41:00,70.0,30.0,29.91,ENE,76,3.0,3.0,23,0.00,,,0.00,0,weatherlink.com 1.10,2013-10-09 03:41:00,
2013-10-08 20:56:00,69.4,30.0,29.91,ENE,74,2.0,4.0,23,0.00,,,0.00,0,weatherlink.com 1.10,2013-10-09 03:56:00,
2013-10-08 21:11:00,68.6,29.0,29.92,ENE,68,2.0,4.0,23,0.00,,,0.00,0,weatherlink.com 1.10,2013-10-09 04:11:00,
2013-10-08 21:26:00,68.5,29.0,29.92,ENE,68,0.0,3.0,23,0.00,,,0.00,0,weatherlink.com 1.10,2013-10-09 04:26:00,
2013-10-08 21:41:00,66.0,30.0,29.92,ENE,68,2.0,2.0,26,0.00,,,0.00,0,weatherlink.com 1.10,2013-10-09 04:41:00,
2013-10-08 21:56:00,64.8,29.0,29.92,ENE,68,1.0,3.0,26,0.00,,,0.00,0,weatherlink.com 1.10,2013-10-09 04:56:00,
2013-10-08 22:11:00,63.6,31.0,29.92,ENE,77,0.0,2.0,29,0.00,,,0.00,0,weatherlink.com 1.10,2013-10-09 05:11:00,
2013-10-08 22:26:00,63.8,30.0,29.92,ENE,77,1.0,3.0,28,0.00,,,0.00,0,weatherlink.com 1.10,2013-10-09 05:26:00,
2013-10-08 22:41:00,64.3,29.0,29.93,ENE,77,0.0,3.0,27,0.00,,,0.00,0,weatherlink.com 1.10,2013-10-09 05:41:00,
2013-10-08 22:56:00,62.8,29.0,29.93,ENE,77,0.0,2.0,28,0.00,,,0.00,0,weatherlink.com 1.10,2013-10-09 05:56:00,
2013-10-08 23:11:00,63.3,29.0,29.92,ENE,77,0.0,1.0,27,0.00,,,0.00,0,weatherlink.com 1.10,2013-10-09 06:11:00,
2013-10-08 23:26:00,62.0,30.0,29.92,ENE,77,0.0,1.0,30,0.00,,,0.00,0,weatherlink.com 1.10,2013-10-09 06:26:00,
2013-10-08 23:41:00,63.6,29.0,29.92,ENE,77,2.0,3.0,27,0.00,,,0.00,0,weatherlink.com 1.10,2013-10-09 06:41:00,
2013-10-08 23:56:00,61.9,30.0,29.92,SE,134,0.0,3.0,30,0.00,,,0.00,0,weatherlink.com 1.10,2013-10-09 06:56:00,